Pagina principale
METAR-TAF:

METAR-TAF

Aeroporti :

Newport, Vermont, Stati Uniti

latitudine: 44-53-20N, longitudine: 072-13-45W, altezza: 283 m

Osservazione

Il bollettino è stato emesso 18 minuti fa, alle 06:35 UTC
Vento calmo
Temperature 19°C
Umidità 100%
Pressione 1015 hPa
Visibilità: 11.3 km
Cielo sereno

METAR: KEFK 140635Z AUTO 00000KT 7SM CLR 19/19 A2998 RMK AO2 T01870187

Ora: 02:53 (06:53 UTC)


TAF: mancante

Osservazioni e previsioni meteorologiche di più di 4000 aeroporti (messaggi METAR e TAF).

Le stazioni disponibili sono rappresentate dai dischi gialli e rossi sulla carta.

Puntare il mouse per vedere il nome della stazione.

Clicca sopra per visualizzare le osservazioni e previsioni meteorologiche.

Per cambiare la mappa : fare clic sui pulsanti verdi con una croce nera per ingrandire, il pulsante verde con un trattino per diminuire, o sulla freccia verde per le mappe adiacenti.


METAR-TAF: